Regional Weather Roundup
Issued by NWS Newport/Morehead, NC

Current Version | Previous Version | Graphics & Text | Print | Product List | Glossary Off
Versions: 1 2 3 4 5 6 7 8 9 10 11 12 13 14 15 16 17 18 19 20 21 22 23 24 25 26 27 28 29 30 31 32 33 34 35 36 37 38 39 40 41 42 43 44 45 46 47 48 49 50

000
ASUS42 KMHX 072324
RWRMHX
WEATHER ROUNDUP FOR EASTERN NORTH CAROLINA
NATIONAL WEATHER SERVICE NEWPORT/MOREHEAD CITY NC
600 PM EST WED DEC 07 2016

NOTE: "FAIR" INDICATES FEW OR NO CLOUDS BELOW 12,000 FEET
WITH NO SIGNIFICANT WEATHER AND/OR OBSTRUCTIONS TO VISIBILITY

NCZ015>017-031-032-045>047-102-103-080000-
NORTH COAST

CITY           SKY/WX    TMP DP  RH WIND       PRES   REMARKS
EDENTON        MOCLDY    47  44  89 CALM      30.09R
ELIZABETH CITY PTCLDY    49  43  80 NE9       30.07R
KITTY HAWK     MOCLDY    50  46  85 CALM      30.06R
MANTEO         PTCLDY    49  44  84 NE8       30.08R

$$

NCZ045>047-081-094-103-104-080000-
CENTRAL COAST

CITY           SKY/WX    TMP DP  RH WIND       PRES   REMARKS
FRISCO         NOT AVBL

$$

NCZ095-097-098-100-101-080000-
SOUTHERN COAST

CITY           SKY/WX    TMP DP  RH WIND       PRES   REMARKS
BEAUFORT       PTCLDY    51  45  79 E3        30.07R
CEDAR ISLAND   NOT AVBL
JACKSONVILLE   CLEAR     52  47  83 CALM      30.06R
PINEY ISLAND   CLEAR    N/A N/A N/A NE5       30.07R
WILMINGTON     CLEAR     51  48  89 CALM      30.06R


$$

NCZ011>013-027>030-043-044-078>080-089-090>093-098-080000-
COASTAL PLAIN

CITY           SKY/WX    TMP DP  RH WIND       PRES   REMARKS
AHOSKIE        CLEAR     44  43  96 CALM      30.09R
CLINTON        CLEAR     51  48  90 CALM      30.07R
ELIZABETHTOWN  CLEAR     52  47  83 CALM      30.06R
GOLDSBORO      CLEAR     50  49  97 CALM      30.05R
GREENVILLE     CLEAR     46  45  93 CALM      30.09R
HAVELOCK       CLEAR     50  46  86 CALM      30.08R
KENANSVILLE    NOT AVBL
KINSTON        CLEAR     46  45  93 CALM      30.07R
NEW BERN       CLEAR     48  44  86 CALM      30.08R
RICHLANDS      CLEAR     47  46  97 N3        30.07R
ROCKY MOUNT    CLEAR     46  46 100 CALM      30.08R
WASHINGTON     CLEAR     46  43  90 CALM      30.08R
WHITEVILLE     CLEAR     52  47  84 CALM      30.05R

$$

AMZ130-135-150-152-154-156-158-170-250-252-270-ANZ085-086-088-633-658-670-080000-
MARINE OBSERVATIONS

STATION/POSITION TIME  TEMP    WIND        PRES    WAVE   SWELL
                       AIR SEA DIR/SP/G            HT/PER HT/PER
                 (UTC) (F)     (DEG/KT/KT) (MB)    (FT/S) (FT/S)
CHESAPEAKE LIGHT NOT AVBL
64 E VA BEACH    2250   52 59  360/ 10/ 14 1017.5    7/ 9   7/ 9
DUCK             2300   51 54   20/ 14/ 16 1017.6
2 E DUCK         NOT AVBL
OREGON INLET     2300   51 55  350/  8/ 14 1017.9
13E OREGON INLT  NOT AVBL
HATTERAS CG      2300   51 60   30/  9/ 12 1017.7
DIAMOND BUOY     2250   57 77   10/ 12/ 16 1017.9    6/10   5/10
CAPE LOOKOUT     2300   54      40/  8/  9 1017.9
BEAUFORT LAB     2300   52 55   60/  3/  5 1017.1
30 SE NEW RVR IN 2308   56 71   70/  4/  8 1018.3
30 SE NEW RVR IN NOT AVBL
27 SE WRIGHTSVLE 2308   58 68   70/  4/  8 1017.8
5 SE WRIGHTSVLE  2308   55 61  130/  8/ 12 1017.7
225 S CAPE HAT   2250   70 74  350/ 10/ 12 1017.0    7/ 8   7/ 8
41 SE CHARLESTON 2250   63 74  330/  4/  6 1017.4    2/ 7   2/ 7

$$




USA.gov is the U.S. government's official web portal to all federal, state and local government web resources and services.